TimeCDT,TemperatureF,Dew PointF,Humidity,Sea Level PressureIn,VisibilityMPH,Wind Direction,Wind SpeedMPH,Gust SpeedMPH,PrecipitationIn,Events,Conditions,WindDirDegrees,DateUTC
12:13 AM,44.6,41.0,87,29.67,0.8,ENE,10.4,17.3,N/A,,Haze,60,2013-05-20 05:13:00
12:33 AM,44.6,41.0,87,29.68,0.8,ENE,10.4,17.3,N/A,,Haze,60,2013-05-20 05:33:00
12:53 AM,44.6,41.0,87,29.67,0.5,ENE,12.7,18.4,N/A,,Haze,60,2013-05-20 05:53:00
1:13 AM,44.6,41.0,87,29.66,0.5,ENE,10.4,17.3,N/A,,Haze,60,2013-05-20 06:13:00
1:33 AM,44.6,41.0,87,29.66,0.5,NE,6.9,17.3,N/A,Fog,Fog,50,2013-05-20 06:33:00
1:53 AM,44.6,41.0,87,29.65,0.5,NE,10.4,-,N/A,,Drizzle,50,2013-05-20 06:53:00
2:13 AM,44.6,41.0,87,29.65,0.8,ENE,9.2,-,N/A,,Drizzle,60,2013-05-20 07:13:00
2:33 AM,44.6,39.2,81,29.64,1.8,ENE,9.2,17.3,N/A,Rain,Light Rain,60,2013-05-20 07:33:00
2:53 AM,44.6,39.2,81,29.62,1.5,ENE,12.7,19.6,N/A,,Haze,60,2013-05-20 07:53:00
3:13 AM,44.6,39.2,81,29.62,5.0,NE,6.9,17.3,N/A,Rain,Rain,50,2013-05-20 08:13:00
3:33 AM,42.8,37.4,81,29.60,10.0,ENE,10.4,18.4,0.01,Rain,Light Rain,60,2013-05-20 08:33:00
3:53 AM,42.8,37.4,81,29.60,10.0,ENE,13.8,20.7,0.01,,Overcast,60,2013-05-20 08:53:00
4:13 AM,42.8,37.4,81,29.59,10.0,ENE,11.5,18.4,N/A,,Overcast,60,2013-05-20 09:13:00
4:33 AM,42.8,37.4,81,29.58,7.0,ENE,9.2,21.9,N/A,Rain,Rain,60,2013-05-20 09:33:00
4:53 AM,42.8,37.4,81,29.58,7.0,ENE,12.7,17.3,N/A,,Overcast,60,2013-05-20 09:53:00
5:13 AM,42.8,37.4,81,29.57,2.5,ENE,10.4,-,N/A,,Overcast,60,2013-05-20 10:13:00
5:33 AM,42.8,37.4,81,29.57,2.0,ENE,10.4,-,N/A,,Light Drizzle,60,2013-05-20 10:33:00
6:13 AM,42.8,37.4,81,29.57,3.0,ENE,8.1,-,N/A,Rain,Light Rain,70,2013-05-20 11:13:00
6:33 AM,42.8,37.4,81,29.57,4.0,ENE,6.9,18.4,N/A,,Overcast,60,2013-05-20 11:33:00
6:53 AM,42.8,37.4,81,29.58,4.0,ENE,10.4,17.3,N/A,,Haze,70,2013-05-20 11:53:00
7:13 AM,42.8,37.4,81,29.59,4.0,ENE,10.4,-,0.01,Rain,Rain,70,2013-05-20 12:13:00
7:33 AM,42.8,37.4,81,29.60,4.0,ENE,8.1,-,0.01,,Drizzle,60,2013-05-20 12:33:00
7:53 AM,42.8,37.4,81,29.60,4.0,ENE,9.2,17.3,0.01,,Drizzle,60,2013-05-20 12:53:00
8:13 AM,42.8,37.4,81,29.60,3.0,ENE,5.8,-,0.01,Rain,Light Rain,60,2013-05-20 13:13:00
8:33 AM,42.8,37.4,81,29.60,10.0,NE,8.1,-,0.01,,Overcast,50,2013-05-20 13:33:00
8:53 AM,42.8,37.4,81,29.60,10.0,ENE,10.4,-,0.01,,Overcast,60,2013-05-20 13:53:00
9:13 AM,42.8,37.4,81,29.59,7.0,ENE,8.1,-,N/A,,Overcast,60,2013-05-20 14:13:00
9:33 AM,42.8,37.4,81,29.59,1.0,NE,5.8,-,N/A,,Haze,50,2013-05-20 14:33:00
9:53 AM,42.8,37.4,81,29.59,0.5,ENE,6.9,-,N/A,,Haze,60,2013-05-20 14:53:00
10:33 AM,42.8,37.4,81,29.60,7.0,ENE,6.9,-,0.01,,Overcast,60,2013-05-20 15:33:00
10:53 AM,42.8,37.4,81,29.60,10.0,ENE,5.8,-,0.01,,Overcast,70,2013-05-20 15:53:00
11:13 AM,42.8,39.2,87,29.59,7.0,NE,8.1,-,N/A,,Drizzle,50,2013-05-20 16:13:00
11:33 AM,44.6,39.2,81,29.59,3.0,ENE,5.8,-,N/A,,Haze,60,2013-05-20 16:33:00
11:53 AM,42.8,39.2,87,29.59,4.0,NE,6.9,-,N/A,,Overcast,50,2013-05-20 16:53:00
12:13 PM,44.6,39.2,81,29.58,7.0,ENE,9.2,16.1,N/A,,Overcast,60,2013-05-20 17:13:00
12:33 PM,44.6,41.0,87,29.58,4.0,ENE,5.8,18.4,N/A,,Haze,70,2013-05-20 17:33:00
12:53 PM,44.6,41.0,87,29.58,2.5,ENE,6.9,-,N/A,,Haze,60,2013-05-20 17:53:00
1:13 PM,46.4,41.0,81,29.58,4.0,ENE,9.2,-,N/A,,Haze,60,2013-05-20 18:13:00
1:53 PM,46.4,41.0,81,29.59,5.0,NE,8.1,-,N/A,,Haze,40,2013-05-20 18:53:00
2:13 PM,44.6,39.2,81,29.59,1.8,ENE,6.9,17.3,N/A,,Haze,60,2013-05-20 19:13:00
2:33 PM,44.6,39.2,81,29.59,1.2,ENE,9.2,19.6,N/A,,Haze,70,2013-05-20 19:33:00
2:53 PM,42.8,37.4,81,29.59,1.0,ENE,13.8,21.9,N/A,,Haze,60,2013-05-20 19:53:00
3:13 PM,42.8,37.4,81,29.60,1.0,ENE,11.5,21.9,N/A,,Haze,60,2013-05-20 20:13:00
3:33 PM,42.8,37.4,81,29.60,2.0,ENE,13.8,20.7,N/A,,Haze,60,2013-05-20 20:33:00
3:53 PM,42.8,37.4,81,29.60,0.8,ENE,13.8,24.2,N/A,,Haze,60,2013-05-20 20:53:00
4:13 PM,42.8,37.4,81,29.61,4.0,ENE,11.5,19.6,N/A,Rain,Rain,70,2013-05-20 21:13:00
4:33 PM,42.8,37.4,81,29.61,2.0,NE,9.2,19.6,0.02,Rain,Heavy Rain,50,2013-05-20 21:33:00
4:53 PM,42.8,37.4,81,29.61,7.0,ENE,11.5,21.9,0.02,Rain,Rain,70,2013-05-20 21:53:00
5:13 PM,41.0,35.6,81,29.63,3.0,ENE,8.1,-,N/A,Rain,Rain,70,2013-05-20 22:13:00
5:33 PM,42.8,37.4,81,29.64,7.0,ENE,11.5,17.3,N/A,Rain,Light Rain,60,2013-05-20 22:33:00
5:53 PM,42.8,37.4,81,29.64,10.0,ENE,9.2,16.1,0.01,,Overcast,70,2013-05-20 22:53:00
6:13 PM,42.8,37.4,81,29.63,10.0,ENE,8.1,19.6,N/A,,Overcast,60,2013-05-20 23:13:00
6:33 PM,42.8,37.4,81,29.63,7.0,ENE,9.2,20.7,N/A,Rain,Light Rain,60,2013-05-20 23:33:00
6:53 PM,42.8,37.4,81,29.64,10.0,ENE,8.1,20.7,N/A,Rain,Light Rain,60,2013-05-20 23:53:00
7:13 PM,42.8,37.4,81,29.65,5.0,ENE,9.2,19.6,0.01,Rain,Rain,60,2013-05-21 00:13:00
7:33 PM,42.8,37.4,81,29.66,10.0,ENE,10.4,17.3,0.01,,Overcast,70,2013-05-21 00:33:00
7:53 PM,42.8,37.4,81,29.66,10.0,ENE,10.4,17.3,0.01,,Overcast,60,2013-05-21 00:53:00
8:13 PM,42.8,37.4,81,29.66,10.0,ENE,13.8,18.4,N/A,,Overcast,70,2013-05-21 01:13:00
8:33 PM,42.8,35.6,76,29.66,10.0,ENE,10.4,18.4,N/A,,Overcast,60,2013-05-21 01:33:00
9:13 PM,41.0,35.6,81,29.67,10.0,ENE,11.5,18.4,N/A,,Overcast,70,2013-05-21 02:13:00
9:33 PM,41.0,35.6,81,29.66,7.0,ENE,12.7,20.7,N/A,,Overcast,70,2013-05-21 02:33:00
9:53 PM,41.0,35.6,81,29.67,4.0,ENE,10.4,19.6,N/A,,Haze,60,2013-05-21 02:53:00
10:13 PM,41.0,35.6,81,29.67,4.0,ENE,11.5,19.6,N/A,,Haze,60,2013-05-21 03:13:00
10:33 PM,41.0,35.6,81,29.67,2.0,ENE,11.5,17.3,N/A,,Haze,70,2013-05-21 03:33:00
10:53 PM,41.0,35.6,81,29.67,1.2,ENE,10.4,20.7,N/A,,Haze,60,2013-05-21 03:53:00
11:13 PM,41.0,35.6,81,29.67,1.0,ENE,12.7,19.6,N/A,,Haze,60,2013-05-21 04:13:00
11:33 PM,41.0,35.6,81,29.65,1.2,ENE,12.7,19.6,N/A,,Haze,60,2013-05-21 04:33:00
11:53 PM,41.0,35.6,81,29.65,1.5,ENE,10.4,20.7,N/A,,Haze,70,2013-05-21 04:53:00